FW7560 Weather Reports


Display with metric or nautical units.
time (UTC)temp
F
wind
direction
speed
MPH
gust
MPH
rain 1hr
in
rain 24hr
in
rain mn
in
humidity
%
barometer
mb
20260504081603 39 0.0 0.0 0.00 0.00 0.00 82 1016.0
20260504044603 40 0.0 0.0 0.00 0.00 0.00 75 1016.8
20260504043058 40 0.0 0.0 0.00 0.00 0.00 73 1016.5
20260504041555 40 0.0 0.0 0.00 0.00 0.00 72 1016.5
20260504040104 41 0.0 0.0 0.00 0.00 0.00 71 1016.4
20260504034600 41 0.0 0.0 0.00 0.00 0.00 70 1016.6
20260504033126 42 0.0 0.0 0.00 0.00 0.00 68 1016.4
20260504031557 42 0.0 0.0 0.00 0.00 0.00 68 1016.2
20260504030056 42 0.0 0.0 0.00 0.00 0.00 67 1016.3
20260504024559 43 0.0 0.0 0.00 0.00 0.00 65 1016.6
20260504023102 44 0.0 0.0 0.00 0.00 0.00 63 1016.7
20260504021556 44 0.0 0.0 0.00 0.00 0.00 61 1016.5
20260504020058 45 0.0 0.0 0.00 0.00 0.00 60 1016.4
20260504014555 46 0.0 0.0 0.00 0.00 0.00 55 1016.2
20260504013107 47 0.0 0.0 0.00 0.00 0.00 53 1016.2
20260504011556 48 0.0 0.0 0.00 0.00 0.00 51 1016.0
20260504010109 50 0.0 0.0 0.00 0.00 0.00 48 1015.8
20260504004619 51 0.0 0.0 0.00 0.00 0.00 43 1015.8
20260504003054 52 0.0 0.0 0.00 0.00 0.00 41 1015.7
20260504001558 53 0.0 0.0 0.00 0.00 0.00 37 1015.5
20260504000053 54 0.0 0.0 0.00 0.00 0.00 35 1015.5
20260503234551 55 0.0 0.0 0.00 0.00 0.00 34 1015.7
20260503233054 55 0.0 0.0 0.00 0.00 0.00 33 1015.5
20260503231555 56 0.0 0.0 0.00 0.00 0.00 32 1016.0
20260503230059 56 0.0 0.0 0.00 0.00 0.00 31 1016.1
20260503224550 57 0.0 0.0 0.00 0.00 0.00 31 1016.1
20260503223054 58 0.0 0.0 0.00 0.00 0.00 34 1016.2
20260503221552 58 0.0 0.0 0.00 0.00 0.00 32 1016.2
20260503220051 58 0.0 0.0 0.00 0.00 0.00 34 1016.1
20260503214551 58 0.0 0.0 0.00 0.00 0.00 32 1016.2
20260503213103 58 0.0 0.0 0.00 0.00 0.00 30 1016.6
20260503211551 58 0.0 0.0 0.00 0.00 0.00 29 1016.6
20260503210100 58 0.0 0.0 0.00 0.00 0.00 29 1016.7
20260503204607 57 0.0 0.0 0.00 0.00 0.00 29 1016.7
20260503203101 58 0.0 0.0 0.00 0.00 0.00 32 1016.8
20260503201552 57 0.0 0.0 0.00 0.00 0.00 34 1017.0
20260503200100 56 0.0 0.0 0.00 0.00 0.00 35 1017.2
20260503194555 56 0.0 0.0 0.00 0.00 0.00 34 1017.4
20260503193101 55 0.0 0.0 0.00 0.00 0.00 34 1017.7
20260503191608 55 0.0 0.0 0.00 0.00 0.00 38 1017.8
20260503190051 55 0.0 0.0 0.00 0.00 0.00 36 1018.2
20260503184558 54 0.0 0.0 0.00 0.00 0.00 38 1018.1
20260503183112 54 0.0 0.0 0.00 0.00 0.00 35 1018.1
20260503181555 53 0.0 0.0 0.00 0.00 0.00 36 1018.0
20260503180052 53 0.0 0.0 0.00 0.00 0.00 37 1018.3
20260503174553 53 0.0 0.0 0.00 0.00 0.00 40 1018.3
20260503173114 52 0.0 0.0 0.00 0.00 0.00 40 1018.6
20260503171554 51 0.0 0.0 0.00 0.00 0.00 43 1018.8
20260503120108 34 0.0 0.0 0.00 0.00 0.00 81 1018.8
20260503100104 32 0.0 0.0 0.00 0.00 0.00 81 1017.3